Location: Condor
(52.3263°N, 114.5541°W)
Time: 00:08:52
(UTC+00:00)

Oscar 19 - Visible Passes

Search period start: 07 December 2023 00:00
Search period end: 17 December 2023 00:00
Orbit: 771 x 789 km, 98.9° (Epoch: 06 December)

Date Brightness Start Highest point End Pass type
(mag) Time Alt. Az. Time Alt. Az. Time Alt. Az.
07 Dec 13.3 00:32:09 10° SW 00:36:06 22° W 00:40:04 10° NW visible
07 Dec 13.4 10:58:09 10° NE 11:00:49 14° E 11:03:27 10° ESE visible
07 Dec 10.6 12:35:43 10° NNE 12:40:54 80° ESE 12:46:05 10° SSW visible
07 Dec 11.8 14:15:49 10° N 14:19:38 21° NW 14:23:25 10° WSW visible
07 Dec 12.3 23:58:42 10° SSW 00:03:27 39° W 00:08:16 10° NNW visible
08 Dec 11.6 12:03:30 10° NNE 12:08:28 45° E 12:13:24 10° S visible
08 Dec 11.2 13:43:00 10° N 13:47:37 34° WNW 13:52:14 10° SW visible
09 Dec 13.8 01:09:23 10° WSW 01:11:12 12° W 01:13:01 10° WNW visible
09 Dec 12.6 11:31:35 10° NE 11:35:52 26° E 11:40:08 10° SSE visible
09 Dec 10.6 13:10:24 10° N 13:15:28 57° WNW 13:20:32 10° SW visible
09 Dec 12.3 14:51:27 10° NNW 14:53:44 13° NW 14:56:02 10° WNW visible
10 Dec 13.3 00:34:30 10° SW 00:38:23 21° W 00:42:17 10° NW visible
10 Dec 13.4 11:00:19 10° NE 11:03:07 14° E 11:05:54 10° ESE visible
10 Dec 10.6 12:37:59 10° NNE 12:43:11 83° ESE 12:48:22 10° SSW visible
10 Dec 11.8 14:18:08 10° N 14:21:52 21° NW 14:25:37 10° W visible
11 Dec 12.3 00:01:00 10° SSW 00:05:44 38° W 00:10:31 10° NNW visible
11 Dec 11.6 12:05:45 10° NNE 12:10:45 47° E 12:15:43 10° S visible
11 Dec 11.2 13:45:17 10° N 13:49:52 33° WNW 13:54:27 10° WSW visible
12 Dec 13.8 01:11:54 10° WSW 01:13:30 11° W 01:15:05 10° WNW visible
12 Dec 12.6 11:33:48 10° NE 11:38:09 27° E 11:42:29 10° SSE visible
12 Dec 10.6 13:12:40 10° N 13:17:44 56° WNW 13:22:47 10° SW visible
12 Dec 12.3 14:53:47 10° NNW 14:55:58 13° NW 14:58:10 10° WNW visible
13 Dec 13.3 00:36:51 10° SW 00:40:40 21° W 00:44:30 10° NW visible
13 Dec 13.3 11:02:28 10° NE 11:05:25 15° E 11:08:20 10° ESE visible
13 Dec 10.6 12:40:14 10° NNE 12:45:27 85° ESE 12:50:39 10° SSW visible
13 Dec 11.9 14:20:25 10° N 14:24:07 20° NW 14:27:49 10° W visible
14 Dec 12.4 00:03:18 10° SSW 00:08:00 36° W 00:12:46 10° NNW visible
14 Dec 11.5 12:07:59 10° NNE 12:13:02 48° E 12:18:02 10° S visible
14 Dec 11.3 13:47:34 10° N 13:52:07 32° WNW 13:56:41 10° WSW visible
15 Dec 13.8 01:14:28 10° W 01:15:47 11° W 01:17:07 10° WNW visible
15 Dec 12.5 11:36:02 10° NE 11:40:26 27° E 11:44:50 10° SSE visible
15 Dec 10.7 13:14:57 10° N 13:19:59 54° WNW 13:25:02 10° SW visible
15 Dec 12.3 14:56:07 10° NNW 14:58:12 12° NW 15:00:17 10° WNW visible
16 Dec 13.4 00:39:12 10° SW 00:42:57 20° W 00:46:43 10° NW visible
16 Dec 13.3 11:04:38 10° NE 11:07:42 16° E 11:10:45 10° ESE visible
16 Dec 10.6 12:42:30 10° NNE 12:47:43 87° ESE 12:52:55 10° SSW visible
16 Dec 11.9 14:22:43 10° N 14:26:21 20° NW 14:30:00 10° W visible
